Home > Weather > Midway > Past weeks

Flag for US Minor Outlying Islands Weather for the Past 2 Weeks in Midway, US Minor Outlying Islands

Now
66 °F

Overcast.


Feels Like: 66 °F
Forecast: 66 / 73 °F
Wind: 20 mph from East

Location: Midway Island Naval Air Facility

Current Time: Apr 29, 2016 at 10:48:38 PM

Latest Report: Apr 29, 2016 at 10:09 PM


Visibility: 10 mi

Pressure: 30.23 "Hg

Humidity: 88%

Dew Point: 63 °F

Location of MidwayLocation

Historic Weather in Midway — Graph

°F

Midway Temperature Yesterday

Maximum temperature yesterday: 79 °F (at 4:36 PM)
Minimum temperature yesterday: 69 °F (at 10:56 PM)
Average temperature yesterday: 73 °F

High & Low Weather Summary for the Past Weeks

 TemperatureHumidityPressure
High79 °F (Apr 28, 4:36 PM)100% (Apr 26, 7:35 AM)30.42 "Hg (Apr 26, 7:35 AM)
Low62 °F (Apr 15, 2:56 AM)55% (Apr 17, 1:56 PM)29.98 "Hg (Apr 26, 2:56 AM)
Average70 °F78%30.19 "Hg
* Reported Apr 14 8:15 PM — Apr 29 8:56 PM, Midway, Weather by CustomWeather, © 2016

Note: Actual official high and low records may vary slightly from our data, if they occured in-between our weather recording intervals... More about our weather records

Advertising

Midway Weather History for the Previous 24 Hours

Scroll right to see more
 ConditionsComfort  
Time TempWeatherWind HumidityBarometerVisibility
8:56 PM
Fri, Apr 29
67 °FOvercast.18 mph87%30.21 "Hg10 mi
7:56 PM66 °FMostly cloudy.17 mph90%30.19 "Hg10 mi
7:24 PM66 °FLow clouds.17 mph88%30.19 "Hg10 mi
6:56 PM66 °FLight rain. Overcast.16 mph90%30.18 "Hg7 mi
5:56 PM65 °FLight rain. Fog.18 mph94%30.17 "Hg5 mi
4:56 PM66 °FLight rain. Fog.18 mph93%30.16 "Hg6 mi
3:56 PM67 °FLow clouds.18 mph90%30.16 "Hg9 mi
2:56 PM68 °FLow clouds.18 mph90%30.16 "Hg10 mi
1:56 PM68 °FLight rain. Fog.18 mph93%30.16 "Hg4 mi
12:56 PM68 °FLight rain. Fog.17 mph93%30.17 "Hg2 mi
12:34 PM70 °FLight rain. Fog.15 mph88%30.17 "Hg3 mi
11:56 AM70 °FOvercast.17 mph84%30.17 "Hg10 mi
9:56 AM68 °FOvercast.14 mph90%30.18 "Hg10 mi
9:18 AM66 °FOvercast.16 mph94%30.18 "Hg10 mi
8:56 AM67 °FMostly cloudy.15 mph93%30.18 "Hg10 mi
7:56 AM66 °FLight rain. Fog.14 mph96%30.16 "Hg4 mi
6:56 AM66 °FLight rain. Fog.14 mph96%30.15 "Hg4 mi
5:56 AM67 °FLight rain. Fog.14 mph93%30.13 "Hg4 mi
4:56 AM67 °FLow clouds.10 mph97%30.11 "Hg10 mi
3:56 AM68 °FLight rain. Mostly cloudy.6 mph93%30.11 "Hg10 mi
3:35 AM68 °FLow clouds.8 mph94%30.10 "Hg10 mi
2:56 AM69 °FOvercast.6 mph90%30.10 "Hg10 mi
2:17 AM70 °FOvercast.5 mph88%30.10 "Hg10 mi
1:56 AM69 °FMostly cloudy.7 mph90%30.11 "Hg10 mi
1:23 AM70 °FMostly cloudy.7 mph88%30.11 "Hg10 mi
12:56 AM70 °FMostly cloudy.7 mph90%30.11 "Hg10 mi
12:17 AM70 °FPassing clouds.6 mph88%30.11 "Hg10 mi
11:56 PM
Thu, Apr 28
69 °FPartly cloudy.7 mph93%30.12 "Hg10 mi
10:56 PM69 °FPartly cloudy.5 mph93%30.11 "Hg10 mi
10:30 PM70 °FPassing clouds.3 mph94%30.12 "Hg10 mi
Weather by CustomWeather, © 2016

See weather overviewHow to use our weather pages